Flag for Netherlands Weather past 2 weeks in Leiden, Netherlands

Now
54 °F

Fog.


Feels Like: 52 °F
Forecast: 58 / 71 °F
Wind: 6 mph from Northeast

Location: Rotterdam Zestienhoven Airport

Current Time: Sep 3, 2014 at 5:00:13 AM

Latest Report: Sep 3, 2014 at 4:25 AM


Visibility: 0 mi

Pressure: 30.21 "Hg

Humidity: 100%

Dew point: 54 °F

Location of LeidenLocation

Historic Weather in Leiden — Graph

°F

Leiden temperature yesterday

Maximum temperature yesterday: 72 °F (at 4:25 PM)
Minimum temperature yesterday: 59 °F (at 3:55 AM)
Average temperature yesterday: 64 °F

Past Weeks' High & Low Weather Summary

 TemperatureHumidityPressure
High72 °F (Sep 2, 4:25 PM)100% (Aug 19, 3:55 AM)30.24 "Hg (Aug 19, 3:55 AM)
Low43 °F (Aug 27, 6:55 AM)49% (Aug 27, 1:55 PM)29.62 "Hg (Aug 26, 2:25 AM)
Average59 °F82%29.95 "Hg
* Reported Aug 19 3:25 AM — Sep 3 3:55 AM, Leiden, Weather by CustomWeather, © 2014

Note: Actual official high and low records may vary slightly from our data, if they occured in-between our weather recording intervals... More about our weather records

Advertising

Leiden weather history for previous 24 hours

 ConditionsComfort  
Time TempWeatherWind HumidityBarometerVisibility
3:55 AM
Sep 3
57 °FFog.3 mph100%30.21 "Hg0 mi
3:25 AM55 °FFog.3 mph100%30.21 "Hg1 mi
2:55 AM55 °FFog.1 mph100%30.24 "Hg1 mi
2:25 AM57 °FFog.2 mph100%30.24 "Hg1 mi
1:55 AM57 °FFog.3 mph100%30.24 "Hg1 mi
1:25 AM57 °FFog.2 mph100%30.24 "Hg1 mi
12:55 AM57 °FFog.2 mph100%30.24 "Hg2 mi
12:25 AM59 °FCool.3 mph94%30.24 "Hg4 mi
11:55 PM
Sep 2
59 °FCool.3 mph100%30.24 "Hg5 mi
11:25 PM59 °FCool.3 mph100%30.24 "HgN/A
10:55 PM61 °FCool.3 mph94%30.24 "HgN/A
10:25 PM61 °FCool.6 mph88%30.24 "HgN/A
9:55 PM61 °FCool.7 mph88%30.24 "HgN/A
9:25 PM64 °FClear.6 mph83%30.21 "HgN/A
8:55 PM64 °FClear.9 mph83%30.21 "HgN/A
8:25 PM64 °FClear.8 mph83%30.21 "HgN/A
7:55 PM66 °FClear.8 mph73%30.21 "HgN/A
7:25 PM66 °FClear.8 mph68%30.21 "HgN/A
6:55 PM66 °FClear.9 mph64%30.21 "HgN/A
6:25 PM70 °FScattered clouds.7 mph60%30.21 "HgN/A
5:55 PM70 °FPassing clouds.8 mph64%30.18 "HgN/A
5:25 PM70 °FPartly sunny.6 mph60%30.18 "HgN/A
4:55 PM72 °FPartly sunny.7 mph57%30.18 "HgN/A
4:25 PM72 °FScattered clouds.6 mph53%30.18 "HgN/A
3:55 PM70 °FPassing clouds.6 mph57%30.18 "HgN/A
3:25 PM68 °FPartly sunny.7 mph64%30.21 "HgN/A
2:55 PM70 °FOvercast.6 mph60%30.21 "HgN/A
2:25 PM68 °FBroken clouds.6 mph60%30.21 "HgN/A
1:55 PM68 °FScattered clouds.3 mph64%30.21 "HgN/A
1:25 PM70 °FPassing clouds.3 mph60%30.21 "HgN/A
12:55 PM70 °FClear.5 mph60%30.21 "HgN/A
12:25 PM68 °FClear.6 mph60%30.21 "HgN/A
11:55 AM68 °FClear.7 mph60%30.21 "HgN/A
11:25 AM68 °FMild.7 mph64%30.21 "HgN/A
10:55 AM66 °FMild.6 mph64%30.18 "HgN/A
10:25 AM64 °FClear.5 mph73%30.18 "HgN/A
9:55 AM63 °FOvercast.5 mph83%30.18 "HgN/A
9:25 AM61 °FOvercast.5 mph88%30.18 "HgN/A
8:55 AM61 °FOvercast.5 mph88%30.18 "HgN/A
8:25 AM61 °FPartly sunny.6 mph88%30.18 "HgN/A
7:55 AM59 °FPartly sunny.5 mph94%30.15 "HgN/A
7:25 AM61 °FPassing clouds.3 mph83%30.15 "HgN/A
6:55 AM61 °FOvercast.1 mph83%30.15 "HgN/A
6:25 AM61 °FOvercast.5 mph83%30.15 "HgN/A
5:55 AM59 °FOvercast.5 mph94%30.15 "HgN/A
5:25 AM59 °FOvercast.5 mph94%30.15 "HgN/A
Weather by CustomWeather, © 2014

See weather overviewHow to use our weather pages